Theta_e
347 347 346 346 345 345 345 344 344 344 345 344 343 342 342 341 341 339 337 335 335 336 338 339 340 341 340 339 338 339 339 338 337 338 338 337 338 338 338 338 338 339 340 340 340 340 340 341 341 340 341 341 341 341 341 341 341 342 342 342 342 342 343 343 342 340 340 338 334 333 332 332 331 331 333 336 338 339 341 340 340 338 335 335 336
347 346 346 345 345 345 345 345 344 345 345 344 342 341 342 342 341 339 335 334 336 337 338 339 340 340 339 338 337 338 339 339 338 337 336 336 337 337 338 338 339 340 341 341 340 340 339 340 340 340 341 341 342 343 342 341 341 341 341 341 340 341 343 343 342 341 342 341 338 334 332 332 332 331 330 332 335 338 340 340 340 338 336 336 336
346 346 345 345 344 345 345 346 345 345 344 343 341 342 343 341 341 339 336 335 336 337 337 338 338 338 337 336 336 337 338 338 337 336 335 336 337 338 338 339 339 340 341 340 340 339 339 339 339 340 341 341 342 342 342 341 340 340 339 340 341 340 342 344 342 341 343 343 342 337 333 334 334 334 332 331 333 337 340 340 340 339 337 336 336
347 346 345 345 345 346 346 345 345 345 345 343 341 341 340 340 341 339 338 337 335 335 335 336 336 336 336 336 337 338 338 338 336 335 335 337 338 338 339 339 340 340 339 339 339 339 339 339 339 339 340 341 341 341 342 341 341 341 339 339 341 340 342 343 341 342 344 343 343 342 337 335 335 336 335 334 334 337 340 339 339 338 338 337 336
348 346 346 345 345 346 346 346 345 344 344 344 341 339 339 340 340 339 339 337 336 335 333 334 334 335 336 337 338 338 338 338 337 335 335 336 338 339 339 339 339 338 338 338 338 339 338 339 339 339 340 341 341 340 341 342 341 342 340 339 340 340 341 343 342 343 344 343 344 345 341 337 336 337 337 337 337 337 339 339 338 338 339 338 337
348 346 346 346 347 346 346 346 345 345 345 345 343 341 342 342 342 342 341 339 337 336 335 335 335 336 338 338 337 338 338 338 336 334 336 337 338 339 339 338 337 336 336 336 337 338 338 338 339 339 340 341 341 340 341 341 342 342 341 340 341 340 341 342 343 344 344 344 345 345 345 340 336 337 337 337 338 338 339 339 339 338 338 339 338
346 346 346 346 347 347 346 346 346 346 345 345 344 343 344 344 343 344 343 342 341 339 339 337 337 338 339 338 338 339 339 339 336 336 336 337 338 338 337 336 335 335 335 336 337 339 339 338 338 339 339 340 340 340 339 340 341 342 341 341 341 341 342 342 343 344 344 344 345 344 346 343 336 335 337 335 337 338 338 338 339 338 338 339 338
346 346 345 345 345 345 345 345 345 345 344 344 343 344 345 344 344 344 344 343 342 341 340 339 339 339 339 338 339 339 340 340 337 336 336 336 336 337 336 336 335 335 334 335 337 338 338 338 338 339 339 339 340 340 339 339 339 341 341 341 340 341 342 342 341 342 343 344 344 344 346 345 338 335 336 334 335 337 338 338 339 339 339 339 339
349 347 345 344 343 343 344 344 345 345 344 344 344 344 344 345 344 345 345 343 341 341 339 340 339 339 338 338 339 340 341 340 338 337 335 336 336 336 336 336 336 335 334 336 338 339 339 338 337 338 338 338 338 339 339 339 338 338 339 341 340 340 341 341 342 341 343 344 345 345 345 345 339 334 336 334 335 336 338 338 339 340 340 340 338
351 349 346 343 343 343 343 345 345 345 345 344 344 344 344 344 344 345 344 342 341 340 339 339 338 339 338 337 339 340 340 339 337 336 336 337 337 336 336 336 336 334 334 336 338 339 339 339 338 337 337 337 337 338 339 338 338 338 338 339 340 340 340 340 342 342 343 344 344 344 344 347 341 335 335 335 336 338 340 339 339 340 340 340 339
351 349 346 343 343 343 343 344 345 345 345 344 344 343 344 344 344 345 343 342 341 341 339 337 338 339 338 337 338 339 339 338 337 336 336 337 337 336 336 336 334 334 335 336 337 338 338 338 337 337 337 337 337 338 338 337 338 339 339 339 339 340 341 341 342 341 342 345 344 342 344 346 338 334 336 335 335 337 339 339 340 340 340 340 339
350 347 344 344 343 343 342 342 344 344 344 343 343 343 343 343 343 342 341 341 341 341 339 337 337 339 339 338 339 339 339 337 337 336 336 336 335 336 336 334 333 335 336 337 337 337 337 337 336 336 336 337 336 337 337 338 337 339 340 339 339 340 341 342 343 342 340 343 345 343 345 344 334 333 336 335 334 334 337 339 339 339 340 339 338
351 346 342 343 343 342 341 341 343 343 344 343 343 343 342 342 342 341 341 341 340 340 339 338 339 339 339 339 339 339 338 337 336 336 335 336 336 336 335 333 334 336 337 337 338 337 337 336 335 336 336 336 335 337 337 337 338 339 340 340 339 340 342 342 343 343 340 342 346 345 344 342 333 332 336 336 335 334 337 338 339 338 339 339 338
349 342 341 343 342 342 341 342 343 344 344 344 342 342 342 342 341 341 340 340 340 340 339 339 339 340 340 339 339 339 337 336 336 335 335 337 338 336 334 333 336 337 338 338 339 338 337 336 335 335 335 336 335 336 338 338 338 339 340 341 339 340 342 342 343 343 341 341 345 345 343 339 333 332 334 336 337 336 336 337 338 338 338 337 337
346 339 340 341 342 342 342 342 343 344 345 344 342 342 342 342 341 341 341 340 340 340 340 340 341 340 340 339 339 338 336 335 335 334 335 338 338 335 333 335 337 338 338 338 339 339 337 335 334 335 334 335 335 336 338 339 339 340 339 340 339 339 341 343 344 343 341 341 343 344 341 336 333 334 333 335 339 339 337 336 337 338 338 336 336
346 340 339 341 342 343 344 344 343 343 344 344 343 343 343 343 342 342 341 341 340 340 340 340 341 341 341 339 338 338 335 335 335 333 335 338 336 333 334 336 337 337 338 338 339 338 336 336 334 334 335 335 336 337 339 339 339 341 339 339 339 338 340 343 345 343 341 341 343 343 341 335 333 335 333 333 338 340 339 338 336 337 337 336 335
350 342 339 341 342 344 345 345 344 343 344 344 344 344 344 344 344 343 341 340 340 340 340 340 340 340 339 339 338 337 335 334 333 333 335 336 334 333 335 337 337 337 338 338 339 339 337 336 334 334 335 336 337 338 339 340 339 340 340 340 339 339 340 342 343 342 342 343 343 343 342 338 334 335 335 332 336 340 340 339 338 337 337 336 335
352 344 340 342 342 344 345 344 344 344 344 344 343 345 345 345 344 342 341 340 340 339 339 339 339 338 336 336 334 333 334 334 334 335 334 334 333 334 336 336 337 338 338 339 339 338 338 337 335 335 336 337 337 338 339 341 340 340 340 341 342 342 342 342 343 342 343 344 343 342 342 340 336 334 336 334 334 339 340 340 339 337 337 337 336
353 348 343 343 343 344 344 344 344 345 345 344 344 345 344 344 342 341 341 341 340 339 339 338 337 336 334 334 333 334 334 335 336 335 334 333 334 336 339 338 337 339 339 340 339 338 337 336 336 336 338 338 338 339 339 340 341 342 342 343 346 342 341 341 339 340 341 344 344 343 341 340 340 337 336 335 335 336 338 339 340 339 339 337 337
355 350 346 345 346 346 345 344 344 345 345 345 345 344 343 343 342 341 341 341 340 339 338 337 336 336 335 335 335 335 336 337 336 334 334 334 335 337 339 338 337 339 340 340 339 337 336 335 336 337 339 340 340 339 340 340 341 342 343 346 347 338 338 339 336 339 342 342 342 342 342 341 341 339 337 336 335 334 335 337 339 339 340 339 338
355 352 348 348 348 347 345 344 345 345 345 345 345 343 342 342 341 341 340 339 339 338 337 336 336 336 337 336 336 338 339 340 337 336 338 336 338 338 337 338 338 340 341 341 339 336 335 335 336 337 339 340 341 341 341 344 344 343 344 348 347 338 337 337 334 341 345 343 341 340 341 342 341 341 339 337 337 335 333 336 338 338 339 339 339
355 354 351 350 349 347 345 345 345 345 346 346 345 343 342 342 341 340 340 338 338 337 336 336 337 337 337 336 337 341 342 341 341 341 342 341 341 340 338 338 339 340 342 341 339 335 335 335 337 338 340 342 343 343 343 346 347 345 346 347 346 341 339 340 338 341 344 343 343 341 340 341 341 342 341 338 338 338 334 334 336 337 337 337 338
354 353 353 353 351 346 344 345 345 345 347 347 346 345 341 341 341 340 340 339 338 337 337 337 338 339 337 336 339 341 342 340 341 342 342 341 339 339 340 338 339 341 342 341 339 338 337 337 340 340 343 345 345 346 346 347 347 346 347 347 346 344 341 343 344 343 344 344 345 343 341 340 340 342 343 341 339 340 338 335 334 336 337 336 337
354 355 355 355 352 347 345 346 345 346 349 349 348 346 341 341 343 340 340 340 338 337 338 338 340 341 339 339 340 342 343 340 340 341 340 339 339 342 342 341 342 343 341 340 342 341 340 342 345 344 345 346 346 347 347 348 346 345 346 345 346 346 344 345 345 344 345 346 346 344 343 342 341 340 342 343 341 340 340 338 334 333 335 336 337
356 356 356 355 353 348 348 348 347 347 349 348 347 347 341 341 344 342 341 340 340 339 338 339 341 343 343 342 342 343 344 342 343 343 342 342 344 346 345 345 346 345 342 341 344 344 343 345 346 346 347 347 348 348 348 347 344 341 340 339 340 342 344 345 344 344 344 346 347 345 344 343 341 340 340 342 343 341 340 340 339 335 333 335 336
356 356 354 354 353 349 350 350 348 347 349 348 349 349 341 342 346 343 342 341 341 340 338 339 341 343 344 344 345 345 344 344 347 345 344 346 348 348 347 347 347 347 345 345 346 346 346 347 348 348 347 349 349 348 347 345 339 338 339 339 340 340 341 343 342 343 343 344 345 344 343 342 342 342 340 340 342 343 342 340 341 339 336 333 334
355 355 353 353 353 352 351 350 347 346 350 350 350 349 342 344 348 345 345 344 343 343 341 342 343 343 343 344 346 346 345 345 348 348 347 348 349 350 348 348 348 347 347 347 347 347 348 348 347 348 347 348 348 347 345 339 337 340 342 341 341 340 340 341 342 341 342 342 341 340 341 341 341 342 342 341 340 342 343 342 341 341 340 337 334
354 354 354 353 353 353 350 349 346 344 350 351 349 350 345 345 349 347 347 348 348 349 348 349 347 345 344 345 347 348 348 348 349 349 350 349 349 350 350 349 349 347 348 348 348 347 349 348 346 347 345 345 347 346 341 336 338 341 340 340 339 339 340 340 341 341 341 341 340 339 339 339 339 341 342 342 341 341 342 343 343 342 341 340 337
354 355 355 354 354 353 350 349 346 342 348 350 348 350 347 348 351 349 349 350 351 353 352 352 349 347 346 346 347 349 350 350 350 350 350 350 350 351 350 350 349 347 349 349 348 348 348 349 348 347 347 347 348 345 337 336 340 339 338 339 339 339 339 339 340 339 340 340 339 339 339 338 337 338 339 341 342 341 340 341 343 343 342 341 340
355 355 355 353 353 352 349 348 345 342 345 348 349 352 350 350 353 350 350 351 351 352 352 352 351 350 349 347 345 347 350 351 351 351 351 351 350 350 349 349 349 349 349 349 348 348 348 349 349 348 347 347 346 343 339 338 340 340 338 339 340 340 338 338 338 338 339 340 340 339 338 336 336 337 338 339 341 342 341 340 340 342 343 342 341
354 355 355 353 353 352 351 350 346 343 343 346 349 352 352 352 354 352 351 351 351 352 353 352 352 352 351 349 346 344 347 350 351 350 351 352 349 348 348 349 350 349 348 348 348 347 348 348 348 347 346 345 343 342 342 340 339 339 338 339 339 339 338 336 336 335 336 339 339 338 338 338 337 337 337 337 338 341 343 342 340 340 341 342 342
354 355 355 354 353 353 352 352 350 344 342 348 350 352 353 352 353 353 351 351 349 350 353 352 352 352 352 352 350 345 344 346 348 348 350 349 347 348 350 350 351 349 348 347 347 347 348 347 346 347 347 347 344 343 342 340 341 338 337 340 338 338 339 336 337 336 335 335 336 339 339 339 339 337 336 336 336 337 341 343 342 341 341 341 342
353 353 354 354 353 353 353 353 352 345 341 349 353 351 352 352 351 351 351 352 350 349 351 352 352 352 352 353 351 346 344 343 343 345 345 345 344 347 349 350 350 349 348 346 346 346 346 345 346 347 348 347 344 343 342 340 341 338 337 339 338 339 338 337 339 337 334 334 336 340 339 338 340 339 338 337 336 336 336 338 340 341 342 341 341
352 353 353 354 354 353 353 354 353 345 338 349 354 351 353 353 350 351 352 353 352 348 350 353 352 352 353 351 348 345 345 343 342 343 343 342 343 345 346 347 347 347 348 347 346 346 346 346 346 347 348 345 344 344 341 340 341 340 339 338 338 339 338 338 339 336 335 335 336 339 338 339 341 340 341 340 338 337 337 335 334 335 337 340 341
352 353 353 353 353 352 353 353 353 346 338 347 354 352 353 353 352 353 353 353 353 349 351 352 352 353 353 350 348 347 345 344 343 343 344 343 343 344 346 346 346 347 349 349 348 347 346 347 346 346 347 345 344 343 341 340 340 340 340 338 339 339 337 339 338 337 338 338 336 337 336 339 339 340 341 341 339 340 340 337 334 331 332 335 339
353 353 353 353 353 352 352 353 353 349 340 343 352 354 354 353 354 355 355 353 352 351 352 353 354 354 353 351 349 348 347 346 344 343 343 343 343 344 345 345 346 347 348 349 350 349 347 347 346 346 346 345 344 341 340 339 338 340 340 339 340 340 338 339 339 339 340 338 336 338 338 337 337 339 340 339 340 340 341 339 337 332 330 334 337
353 353 354 354 354 352 352 353 353 353 347 341 347 352 353 352 351 354 354 352 351 352 354 353 354 354 353 353 350 349 348 346 344 344 344 344 344 345 346 346 346 346 347 349 349 348 347 347 347 346 345 344 343 341 341 339 339 338 338 338 339 339 338 339 339 338 338 338 336 338 340 339 339 339 338 340 341 341 341 342 340 335 332 334 337
353 354 354 354 354 354 353 353 354 355 353 346 343 347 349 348 347 350 353 352 350 352 353 353 352 353 354 354 352 350 346 345 345 344 344 346 346 347 348 346 345 346 347 347 348 347 348 348 347 346 345 345 342 338 337 338 337 335 335 338 340 339 337 337 337 335 338 340 336 336 340 340 340 339 338 340 341 341 341 341 342 339 335 333 334
354 354 355 354 353 354 353 353 353 355 355 352 346 344 347 346 343 344 348 348 347 348 351 353 353 352 354 354 353 349 345 345 345 344 345 346 346 347 348 347 347 347 346 347 348 348 348 347 347 347 345 342 336 330 332 337 336 336 337 339 340 338 334 333 334 335 338 338 334 334 339 339 339 339 338 339 340 340 339 339 341 341 339 338 336
354 353 354 354 353 353 354 354 353 355 356 355 351 346 347 346 341 341 342 342 342 343 346 349 351 352 354 354 353 350 347 346 345 344 346 347 347 347 348 348 348 348 348 347 349 349 348 347 347 346 338 333 333 330 334 338 336 338 339 338 340 338 332 332 333 335 337 337 334 334 337 337 337 338 337 338 339 340 338 338 339 337 339 339 339
354 353 353 355 355 354 354 354 353 354 355 355 353 348 346 346 343 341 342 342 340 340 342 345 349 352 354 353 352 350 348 346 346 345 346 347 347 348 349 349 348 348 348 348 349 348 347 347 343 337 329 328 333 335 337 338 336 339 340 340 341 339 335 336 337 337 336 335 335 334 334 335 335 335 337 337 338 339 338 337 335 333 334 335 337
354 353 354 355 355 355 355 355 353 353 354 354 353 348 344 345 345 341 343 349 347 342 342 346 351 353 352 352 351 349 346 346 348 347 347 348 348 349 349 348 348 347 347 348 347 347 345 341 333 329 332 333 333 335 337 337 337 341 342 340 341 341 339 338 338 338 336 334 334 333 333 334 332 331 334 336 336 337 336 331 327 326 327 332 336
354 354 354 355 356 356 356 355 355 352 352 354 353 349 344 343 344 343 345 352 353 348 347 350 353 354 353 352 351 350 349 349 349 348 348 348 348 348 348 347 347 345 346 345 344 343 340 336 332 334 338 337 335 338 339 336 336 341 342 339 338 342 342 339 338 337 334 333 332 333 333 332 330 329 332 333 333 335 334 329 324 322 322 327 334
354 354 355 356 357 356 354 355 356 353 349 352 353 349 344 342 345 350 352 352 352 352 353 353 354 355 355 353 352 351 351 350 351 351 349 348 347 346 345 344 343 343 343 341 342 343 339 335 336 338 338 339 339 340 340 337 336 340 341 341 339 341 342 340 339 336 333 333 332 331 331 330 331 330 329 328 328 331 334 331 323 320 318 321 329
354 355 355 357 357 355 352 352 355 354 349 348 349 348 344 343 348 353 353 352 352 353 354 354 355 355 353 353 352 352 352 351 351 351 348 346 345 342 340 340 340 341 340 339 342 341 338 336 339 338 335 338 341 340 340 338 337 336 337 340 341 340 341 340 339 336 334 335 334 331 330 331 332 330 328 327 327 329 332 330 323 321 320 319 325
354 355 355 358 357 355 352 351 352 353 350 346 344 345 342 342 347 351 350 351 353 353 353 353 354 355 354 353 353 352 352 352 350 349 346 343 341 337 337 338 339 340 339 341 341 337 335 337 340 338 337 337 338 337 337 336 337 334 331 334 337 339 339 339 340 338 335 336 335 332 331 331 330 329 328 328 329 330 329 328 325 325 326 323 323
354 354 356 357 357 357 354 350 348 349 350 347 343 343 341 340 345 349 349 351 351 351 351 351 352 354 353 353 353 350 350 351 349 347 342 341 341 338 335 337 340 340 340 339 337 335 337 340 339 339 339 338 334 332 334 336 337 336 334 334 336 338 337 337 339 339 337 336 334 331 329 329 329 328 328 328 330 331 329 327 326 326 328 328 326
356 355 356 356 357 357 355 351 347 346 348 348 343 341 340 339 343 346 348 350 350 351 351 351 352 353 352 352 351 349 348 348 349 347 343 343 342 337 332 336 340 342 342 339 334 335 340 341 340 339 339 336 331 331 336 339 337 337 338 336 336 337 335 335 337 336 336 336 335 333 330 329 329 328 328 328 328 329 328 329 328 326 328 330 327
356 355 355 356 356 356 356 354 350 345 347 349 346 342 340 340 342 344 348 350 351 352 352 352 352 351 352 351 350 350 348 345 348 350 346 343 340 332 331 335 340 341 341 339 337 337 340 339 338 337 337 336 333 333 334 336 335 336 339 336 335 338 337 336 337 334 332 332 333 334 332 329 329 329 329 329 328 328 328 329 329 327 327 329 328
356 355 355 355 355 356 356 356 353 348 347 348 346 344 341 340 341 344 348 350 351 352 353 353 352 351 351 351 350 350 349 344 346 348 345 342 338 334 332 334 338 341 339 338 339 339 338 336 334 335 336 338 338 335 332 334 336 338 339 337 335 336 335 334 334 333 333 332 331 331 331 330 330 331 331 330 329 329 330 330 329 330 330 330 329
356 354 355 355 356 356 355 356 355 352 350 348 346 345 343 340 340 343 346 348 349 349 350 352 352 352 351 351 351 349 347 343 344 346 345 344 341 338 339 339 340 342 340 338 338 338 338 337 335 336 336 336 337 335 332 332 336 337 337 335 331 330 331 332 332 333 333 332 331 332 332 331 330 331 331 331 331 331 331 332 332 331 331 331 330
Wind_Speed
18 18 19 19 20 22 22 24 25 26 26 26 26 27 27 25 25 25 25 25 26 25 25 24 23 22 21 20 20 19 18 17 18 17 18 18 17 16 16 15 15 14 14 14 14 14 15 14 14 15 14 14 14 14 13 13 12 12 12 11 11 10 9 10 11 10 11 13 13 12 11 11 11 10 9 10 11 11 12 12 12 12 12 13 13
20 19 20 20 21 23 23 24 25 26 26 26 25 26 25 25 24 24 24 25 25 24 23 23 22 21 20 18 18 17 16 16 16 16 17 17 16 16 15 15 14 14 13 13 13 14 14 14 14 14 14 13 13 13 13 13 12 12 12 12 12 10 9 9 10 10 11 12 13 13 11 11 12 11 10 10 10 10 11 12 12 12 13 13 12
22 21 22 22 22 22 23 24 25 27 27 26 25 25 24 24 24 24 24 24 24 23 22 21 20 19 18 17 16 15 15 15 15 15 16 16 15 15 14 14 13 13 12 12 13 13 13 13 13 13 13 12 13 12 12 12 11 11 12 12 12 11 9 9 10 9 10 11 11 13 12 12 12 11 11 11 10 10 10 11 12 12 13 13 12
23 23 23 23 23 23 23 24 25 28 27 25 25 25 24 23 23 23 22 22 22 21 20 19 18 17 16 15 14 14 14 14 14 15 15 14 15 14 13 13 12 12 11 11 12 12 13 12 12 12 12 11 11 11 11 11 10 10 11 12 12 12 10 9 10 9 8 10 11 11 12 12 12 11 11 11 10 10 10 12 13 13 13 13 12
24 24 23 23 24 24 24 24 25 28 27 25 26 25 24 23 22 22 21 21 20 19 18 17 17 16 15 14 14 13 13 14 14 14 13 13 14 13 12 12 11 11 11 11 11 12 12 12 11 11 10 10 10 10 10 9 9 9 10 11 12 12 10 9 10 9 7 11 11 9 11 12 12 12 11 11 10 10 10 12 13 12 13 13 12
25 25 24 23 23 23 24 23 24 26 26 25 25 25 24 24 22 21 21 20 19 18 17 16 15 15 14 13 13 13 13 13 13 13 12 12 12 12 11 11 11 11 10 11 11 11 11 10 10 9 9 9 9 9 9 9 8 9 10 11 12 12 10 9 10 10 7 10 10 8 10 11 11 11 11 11 10 10 11 12 12 11 12 12 12
26 25 24 23 22 22 22 22 22 22 23 23 23 23 23 23 22 20 19 19 18 17 17 16 15 14 14 13 13 12 12 12 12 12 11 11 11 11 10 10 10 10 10 10 10 10 9 9 9 8 8 8 8 8 8 8 8 8 9 10 11 12 11 9 10 10 8 9 10 9 10 8 9 11 10 10 10 10 11 11 11 11 11 12 12
25 24 24 24 23 22 22 22 21 21 22 22 22 22 22 22 20 18 17 18 18 17 17 16 15 14 13 13 13 12 11 10 10 10 10 10 10 9 8 8 9 10 9 9 9 9 9 8 8 8 8 7 7 7 7 7 7 8 9 9 11 12 11 10 9 10 9 9 10 10 9 7 7 10 10 9 9 9 10 11 11 11 11 11 11
22 22 23 24 24 23 24 23 21 21 21 21 21 20 19 18 17 16 16 17 17 17 16 16 15 14 13 13 12 11 10 9 9 9 9 9 8 8 7 8 9 9 9 9 9 8 8 8 7 7 8 7 7 6 6 7 7 8 8 9 9 10 10 9 9 8 9 9 10 8 8 7 6 8 9 8 8 8 9 10 10 11 11 11 11
21 21 22 24 25 24 24 23 22 21 20 20 19 19 18 16 16 15 16 17 17 16 16 16 15 14 13 11 11 10 9 9 8 8 8 8 7 7 6 7 8 9 8 8 8 7 7 7 7 8 8 7 7 6 6 6 7 7 8 8 8 8 8 7 7 5 7 10 10 7 7 6 6 7 8 8 8 8 8 8 9 10 11 11 10
23 21 23 25 25 24 24 23 22 21 20 20 19 18 17 17 17 16 17 17 16 16 15 15 14 12 11 10 9 9 8 8 7 7 7 7 7 6 6 6 8 8 8 8 7 7 7 7 8 8 8 9 8 6 6 6 6 7 7 7 7 7 7 6 6 5 6 8 7 7 7 6 5 6 6 7 8 7 8 7 8 10 11 11 11
23 22 24 24 24 23 23 22 21 20 19 19 18 18 18 18 17 17 17 16 15 14 14 13 12 11 10 9 8 8 8 8 7 6 6 6 6 5 5 6 7 7 7 8 8 8 8 8 8 8 9 9 10 8 7 6 6 6 6 7 6 7 7 5 6 4 4 7 7 8 8 5 5 5 5 5 7 8 8 8 8 9 11 12 11
22 23 25 24 24 23 22 22 21 20 19 18 18 18 18 18 17 17 16 15 14 13 13 12 11 10 9 8 8 8 8 7 6 5 5 5 5 4 4 6 6 6 7 8 9 10 9 9 9 9 9 10 10 10 8 8 7 7 6 7 6 6 6 6 6 4 4 6 7 8 7 5 4 5 5 4 6 7 8 9 9 8 9 11 11
23 25 26 24 23 22 21 20 20 19 18 17 17 17 18 18 17 17 16 15 13 13 12 11 11 10 9 9 8 8 7 6 5 4 4 4 4 3 4 5 5 6 7 8 9 10 9 9 9 9 9 10 11 10 9 9 8 8 7 7 6 6 6 5 6 5 5 5 5 6 5 5 4 4 5 5 4 6 7 8 9 9 8 9 10
24 25 26 24 22 21 21 19 19 18 17 17 17 18 17 17 17 16 15 14 13 12 12 11 11 10 9 9 8 8 7 6 4 3 3 3 3 2 4 4 5 6 6 8 9 9 8 7 8 9 9 10 11 10 10 10 10 9 8 8 7 7 7 6 6 6 6 6 5 4 4 5 5 3 3 5 5 4 6 8 9 8 8 8 9
22 24 25 23 22 21 20 19 18 18 17 17 17 17 17 17 16 15 14 13 12 12 11 11 10 9 9 8 8 7 6 5 4 3 2 2 2 2 3 4 5 6 7 8 8 7 7 7 8 9 10 11 11 10 10 10 10 10 10 9 8 8 7 6 6 5 6 7 5 3 3 5 5 4 3 3 5 5 5 7 8 8 7 7 8
22 22 24 22 21 20 19 18 17 17 17 16 16 16 16 16 15 14 13 12 12 11 11 10 10 9 8 8 8 7 6 5 4 3 2 1 1 1 2 3 5 6 7 8 9 8 7 8 8 10 11 11 11 10 10 10 10 10 10 10 9 7 7 5 5 5 5 7 6 2 3 4 4 4 3 2 5 6 6 6 7 8 7 7 8
22 21 22 21 20 18 17 18 17 17 17 16 15 15 15 14 13 13 12 12 11 11 10 9 9 9 8 8 7 6 5 4 3 2 2 1 0 1 2 3 4 6 7 9 9 9 8 8 9 10 10 11 11 10 11 11 11 11 10 10 9 7 7 6 6 6 5 6 5 4 3 2 2 3 4 3 4 5 6 7 7 7 7 7 7
22 20 20 20 19 17 17 17 17 16 16 16 15 14 14 13 12 12 12 11 11 10 10 9 9 9 8 8 6 6 4 3 3 2 2 2 1 1 2 2 4 6 7 8 8 8 8 8 9 9 10 11 11 11 10 11 11 11 11 10 10 9 8 7 7 6 6 6 5 3 3 2 2 2 3 4 4 5 5 7 7 8 7 7 7
21 20 19 19 18 17 17 17 17 16 16 15 14 14 13 13 12 12 11 11 10 9 9 9 8 8 8 7 6 5 4 3 3 2 2 2 2 2 3 3 4 6 7 8 8 7 6 7 8 9 10 11 11 9 9 11 11 11 12 8 9 10 7 7 5 4 5 5 4 4 3 3 2 2 3 4 5 5 5 6 7 8 8 8 7
20 19 19 19 18 17 17 17 17 16 15 14 13 13 12 12 12 11 11 10 10 9 9 8 7 7 7 6 6 5 4 3 3 2 3 3 3 3 4 4 6 6 8 9 8 7 6 6 7 10 11 12 11 8 7 10 12 11 10 7 8 9 5 5 4 2 2 3 4 5 3 3 2 2 2 4 5 5 5 6 6 7 8 8 8
20 18 18 18 18 17 17 17 17 16 15 14 13 12 11 11 11 10 10 9 9 9 9 8 7 7 6 5 5 5 4 4 3 3 4 3 3 4 5 6 6 7 8 8 8 7 6 7 8 10 11 12 11 8 8 10 11 10 9 8 5 7 4 4 4 4 3 2 4 5 4 3 2 2 2 3 4 5 4 5 6 7 7 8 8
22 19 19 18 17 17 17 17 17 17 15 13 13 12 11 10 10 9 9 9 9 9 9 8 8 7 6 5 5 4 4 5 3 3 4 3 3 4 6 6 7 8 8 7 6 6 6 7 8 10 10 10 9 8 9 10 10 9 10 11 8 6 5 3 4 5 4 3 3 4 4 4 3 1 2 3 4 5 4 4 5 7 8 7 8
21 20 21 19 17 18 17 17 17 17 15 13 13 12 11 11 10 10 9 9 9 9 9 8 8 7 6 5 5 5 5 4 3 3 5 5 5 4 5 6 8 8 6 6 5 5 5 6 7 8 8 8 8 7 8 9 9 8 8 9 10 10 8 6 5 3 3 4 2 1 2 3 3 1 1 3 4 5 5 4 4 5 7 8 8
20 19 21 20 18 18 17 17 17 17 15 13 12 12 12 12 11 10 10 10 10 9 9 9 8 8 7 6 6 5 4 5 3 4 4 4 5 5 6 6 8 8 5 5 5 5 4 5 7 8 8 9 9 7 6 7 8 9 9 8 9 11 11 10 10 7 5 3 2 3 3 3 3 2 2 2 4 5 6 6 5 5 6 7 8
20 19 21 21 19 18 17 17 17 17 15 14 13 12 13 13 11 11 10 10 10 10 10 9 8 8 7 7 7 5 4 5 3 3 4 3 3 5 6 7 8 7 6 5 5 5 4 4 7 8 8 8 9 8 6 7 9 12 12 12 13 13 10 8 11 10 8 5 5 7 5 5 4 3 2 2 3 5 7 7 7 6 6 6 7
19 19 19 20 20 18 18 18 18 18 15 14 13 12 13 13 12 11 10 10 10 10 10 9 8 8 8 8 7 5 4 4 3 3 4 2 3 5 6 7 7 6 6 6 5 5 5 5 5 6 7 6 7 8 7 7 12 14 13 12 11 11 9 6 7 9 10 8 7 8 8 6 4 3 4 3 3 5 6 7 7 7 7 6 6
19 19 19 20 20 19 19 19 19 19 17 15 14 12 13 13 12 11 11 11 9 8 9 9 8 8 9 8 7 5 4 5 5 4 4 3 5 6 4 5 7 4 4 6 6 5 6 7 6 6 8 7 8 8 9 9 13 13 9 7 7 7 8 6 6 7 7 8 7 8 8 7 5 4 4 4 4 4 5 6 8 8 8 7 7
20 20 20 20 21 20 19 19 19 19 18 16 15 13 14 13 11 12 12 11 11 10 11 11 9 8 8 9 9 7 5 4 5 4 4 5 5 5 3 5 7 4 4 5 6 7 6 7 7 7 8 9 8 9 10 10 11 10 6 8 9 7 6 5 6 7 4 7 8 7 8 9 7 5 4 5 5 4 4 5 7 8 8 8 8
20 20 20 20 21 21 20 18 18 19 19 16 16 14 13 13 11 12 12 12 12 11 11 11 9 8 8 9 10 10 7 5 5 5 4 4 4 5 5 6 5 4 5 6 7 9 7 6 7 8 8 8 9 9 11 10 10 8 6 8 9 7 7 5 5 7 5 5 5 7 10 10 8 6 5 4 5 5 3 4 4 6 8 9 9
20 20 20 20 21 21 20 19 19 19 19 17 17 15 14 15 13 13 14 13 13 12 11 10 8 9 9 10 10 10 9 7 7 6 4 5 6 6 4 4 5 5 7 8 8 9 7 7 8 10 9 8 8 7 10 11 10 7 6 8 7 6 9 5 3 5 4 3 6 10 10 8 9 8 6 4 3 4 3 3 3 4 5 8 10
21 21 20 20 21 21 21 20 20 20 20 18 17 16 15 17 16 15 14 13 13 13 12 10 9 10 10 10 10 9 9 9 9 9 7 8 7 6 3 3 6 7 9 10 9 9 9 9 10 10 8 7 7 7 7 9 8 6 5 8 6 6 8 5 7 6 3 1 6 9 9 9 10 10 8 5 4 4 3 3 3 3 4 6 9
22 22 21 21 22 22 21 21 21 20 21 19 17 17 16 16 16 15 14 12 13 13 12 10 10 11 10 10 11 10 8 9 10 10 10 10 8 7 6 6 8 9 11 11 10 11 11 11 9 8 9 7 7 7 7 6 7 9 5 5 5 5 5 5 8 5 2 1 3 5 8 10 9 10 10 8 6 4 3 3 3 4 4 5 7
22 23 22 22 22 22 21 22 22 21 21 20 17 17 17 15 15 14 14 13 13 13 12 12 12 12 12 13 13 11 9 9 10 10 10 10 9 9 9 9 10 11 12 12 12 12 11 10 10 10 9 5 5 5 7 6 7 10 6 3 4 5 4 7 7 5 2 1 2 2 4 6 7 8 7 6 6 6 5 4 3 3 4 5 6
22 24 24 23 22 22 22 22 22 22 21 21 19 17 17 16 14 14 14 14 13 13 12 12 12 12 13 14 12 10 9 10 11 11 10 9 10 10 11 11 11 12 12 12 13 12 11 11 11 12 8 3 2 4 6 6 8 9 6 5 6 5 4 7 5 5 2 4 3 2 4 3 5 6 6 6 5 6 5 4 3 3 3 4 5
23 24 24 24 23 23 23 21 22 23 22 23 21 18 18 17 15 14 15 14 13 12 12 12 12 12 12 12 11 10 9 10 11 10 9 10 11 12 12 13 12 13 13 13 13 13 13 13 12 11 8 4 2 4 7 7 8 7 5 7 6 4 4 3 4 3 3 2 1 4 6 4 3 4 5 6 4 4 5 5 3 3 4 4 5
24 24 25 26 25 24 24 21 22 23 22 23 23 21 19 19 17 16 14 14 13 12 12 11 11 11 10 10 11 11 9 9 10 9 9 10 11 12 12 13 13 13 13 14 14 14 14 13 10 8 4 3 3 3 4 6 6 5 5 5 5 8 5 3 5 3 3 7 5 2 5 8 8 6 2 2 4 3 4 4 2 2 4 5 5
25 24 26 28 27 25 25 23 22 22 23 23 24 23 20 19 18 16 14 14 13 12 11 11 11 11 10 10 13 13 9 8 9 8 9 10 11 11 13 13 13 13 13 14 15 15 14 11 8 4 3 4 5 5 5 6 6 5 4 3 6 11 6 2 4 4 3 6 5 3 1 4 9 10 8 5 6 6 4 3 3 2 2 5 6
26 25 25 27 28 26 25 25 23 22 23 23 23 24 21 20 20 18 16 16 15 13 12 12 11 11 12 13 15 14 11 9 9 9 9 10 11 11 12 12 11 11 11 12 14 14 11 8 4 3 4 6 8 8 6 6 5 3 5 5 8 10 6 2 0 5 6 3 2 4 2 4 5 6 8 7 8 9 6 5 6 5 2 1 2
26 26 26 26 28 28 26 27 25 23 23 23 22 24 23 21 21 19 18 18 17 15 14 14 13 11 12 14 15 14 12 11 10 10 10 11 10 10 10 10 9 9 9 9 10 10 7 4 2 3 6 8 8 6 4 4 5 4 4 5 7 7 4 3 4 8 6 2 1 3 3 5 7 5 8 6 5 6 6 5 5 5 5 3 2
28 28 29 28 29 30 28 28 28 25 24 23 21 23 24 22 21 20 19 18 17 16 16 15 14 13 12 13 15 14 11 11 10 10 11 10 9 9 9 9 8 7 6 5 4 4 3 3 3 5 6 6 4 2 3 4 4 2 1 0 5 6 3 5 5 6 4 1 1 2 0 1 3 5 7 8 6 4 4 4 4 5 5 3 3
29 30 31 30 29 30 29 29 30 29 26 23 21 22 24 23 21 20 18 16 16 16 15 15 15 14 13 14 15 14 12 12 11 10 10 8 7 7 7 7 6 4 3 2 3 3 3 3 5 4 2 3 2 1 2 6 3 3 5 3 4 5 2 1 2 2 1 1 0 3 3 3 6 2 6 6 5 4 6 5 5 6 5 4 4
30 30 31 30 30 31 30 29 30 30 29 25 23 23 23 23 21 19 17 16 15 14 13 13 13 13 14 15 14 14 13 12 12 10 7 6 5 5 5 4 3 2 3 3 1 3 3 3 3 1 2 2 1 1 2 5 4 2 4 4 4 4 5 3 1 1 2 1 3 5 2 5 9 3 4 2 2 3 8 8 6 6 5 4 4
31 31 32 32 32 32 32 31 30 30 30 28 26 24 23 21 19 16 16 16 14 12 13 13 12 13 14 14 14 14 13 11 10 8 6 6 5 4 4 4 4 3 3 2 1 2 3 2 1 2 5 5 3 2 1 3 3 3 2 3 5 4 1 0 1 3 3 0 4 6 3 6 6 5 5 5 2 1 6 9 8 7 5 3 2
33 33 34 34 34 34 33 33 31 29 29 30 28 26 24 21 20 19 17 16 15 14 15 14 13 14 14 13 14 13 11 10 9 8 7 6 6 5 5 5 4 4 2 1 2 3 1 1 1 2 4 4 2 2 2 1 4 6 3 2 3 1 2 2 1 4 5 1 3 5 3 3 4 7 9 9 6 4 2 9 11 8 7 4 2
34 35 34 34 34 34 33 33 33 30 29 29 30 28 26 24 22 21 20 19 18 18 17 15 14 13 12 12 13 12 10 9 9 9 8 7 7 6 5 5 5 4 4 4 4 3 1 1 4 2 1 4 4 5 4 2 4 7 4 3 1 2 2 1 2 2 4 3 3 2 3 3 6 8 9 11 6 2 3 9 10 7 7 7 3
34 34 34 34 33 33 34 34 34 32 30 29 30 30 28 26 24 21 20 19 18 18 17 16 14 14 12 11 11 10 10 10 8 9 8 7 6 5 5 5 5 3 2 5 5 2 0 3 5 3 4 6 5 6 4 3 3 5 2 1 1 2 3 2 2 3 2 3 4 2 4 6 6 3 6 7 5 4 8 10 8 6 6 7 6
33 34 34 34 34 33 33 34 34 33 32 31 30 30 29 28 26 23 21 20 18 17 16 16 15 14 12 10 10 10 10 9 8 8 7 7 7 6 6 6 6 3 3 2 3 4 3 6 6 5 7 7 6 7 6 5 3 1 2 3 2 2 2 1 2 3 0 1 4 4 4 4 3 2 0 6 4 5 10 10 11 11 5 6 9
33 34 35 34 35 34 33 34 34 34 33 32 31 31 29 28 27 25 22 20 19 17 16 16 15 15 12 10 11 13 12 9 9 10 8 7 8 6 6 8 8 7 6 1 1 4 6 7 7 7 6 4 4 5 6 7 6 1 2 6 6 4 3 2 1 4 2 4 6 5 4 4 3 0 2 5 1 4 8 10 14 15 4 4 8
34 34 35 35 35 35 35 34 35 35 34 33 32 31 30 29 27 26 24 22 20 19 17 16 15 14 14 14 15 16 15 11 11 13 10 9 9 7 7 9 9 8 5 4 3 5 7 6 5 5 4 3 5 4 4 7 6 2 1 2 5 6 4 4 3 4 2 3 6 5 4 4 3 1 2 2 4 6 11 11 11 9 4 4 6
36 35 35 35 35 36 36 36 35 35 35 34 33 32 31 30 28 28 26 24 22 21 20 18 15 15 16 17 18 18 16 12 10 11 9 9 10 8 7 7 8 8 7 9 11 9 8 6 4 4 5 6 6 4 4 6 6 5 4 1 2 3 4 5 4 5 3 3 5 6 7 6 5 3 4 4 7 10 11 10 8 5 6 9 6
Wind_Direction
135 135 134 132 131 131 130 131 133 134 132 130 132 133 132 133 134 133 132 130 129 125 123 120 117 115 113 111 108 105 103 102 102 103 103 102 99 95 93 90 88 83 79 75 72 70 69 68 66 63 61 58 59 60 58 60 62 64 63 60 56 57 62 60 57 64 77 78 78 78 79 85 87 89 97 103 103 101 105 113 111 107 111 112 113
135 134 132 132 131 131 130 132 133 134 132 132 134 132 131 133 134 135 135 133 132 129 126 122 120 118 115 113 109 105 102 101 102 103 103 101 97 92 90 88 85 82 79 74 69 66 64 64 63 61 59 56 58 60 59 58 58 61 61 58 53 53 60 64 61 62 80 81 77 79 77 83 86 86 89 97 103 103 106 114 113 112 115 115 115
132 134 132 131 132 133 132 134 136 137 135 134 132 130 133 135 135 136 138 135 134 131 128 126 123 120 118 115 111 105 102 102 103 103 102 99 96 92 90 88 85 81 76 69 65 61 60 60 59 57 57 54 54 57 58 58 56 57 58 57 53 52 59 66 66 65 83 80 75 82 78 79 82 82 86 91 100 104 106 112 114 116 116 117 118
131 134 130 129 134 135 135 137 140 140 138 137 131 131 137 137 134 135 137 137 137 135 131 129 126 123 121 118 112 107 105 104 104 104 103 100 95 94 92 90 86 79 72 65 62 59 58 58 56 53 54 53 52 53 55 55 55 56 56 58 55 55 62 64 68 70 84 79 73 83 80 77 80 82 84 88 94 99 106 112 116 119 120 121 119
133 134 132 131 133 135 136 137 140 142 140 137 132 134 139 137 135 135 136 138 139 138 135 132 129 126 123 121 115 110 108 107 108 108 105 100 96 95 93 91 84 74 67 61 58 57 56 56 55 52 52 52 52 52 52 54 54 56 56 61 59 57 64 67 71 72 78 77 70 84 89 75 76 84 86 88 91 94 105 114 117 121 124 123 121
135 134 134 133 132 133 133 135 138 141 140 135 134 138 139 136 136 135 135 137 140 140 139 136 132 129 126 122 117 113 110 110 111 111 107 100 96 93 91 88 78 67 60 59 57 56 57 57 55 52 53 52 51 50 49 50 51 55 55 58 60 58 65 72 77 75 68 75 74 79 91 78 74 86 88 91 94 97 106 114 118 122 126 126 126
134 134 135 135 134 132 132 135 135 136 137 135 138 140 139 137 135 133 133 134 138 140 139 138 135 131 128 123 118 116 113 112 113 113 108 100 94 91 89 84 70 58 55 56 57 57 55 57 55 51 52 50 46 46 46 45 45 48 53 56 57 59 67 76 84 87 73 74 79 71 79 77 71 85 89 91 96 102 108 115 120 124 127 129 131
134 136 137 138 137 135 135 136 136 137 139 140 141 142 142 142 139 135 134 134 136 138 139 138 136 133 129 124 121 119 115 115 115 112 106 99 93 91 87 78 63 51 50 48 52 53 50 51 50 49 48 48 44 44 45 43 41 39 48 55 57 61 71 80 83 89 90 84 81 76 88 87 69 84 90 88 93 100 108 116 121 123 127 131 133
135 139 140 140 138 138 138 138 139 141 143 144 143 144 146 146 145 141 138 138 138 138 138 137 135 132 129 127 124 120 117 117 115 111 106 99 94 92 83 69 53 43 43 40 42 45 43 40 38 42 44 48 47 44 46 42 39 38 42 52 60 64 72 85 84 83 96 96 89 86 98 98 74 81 90 90 92 97 105 115 120 123 128 134 135
137 141 143 142 140 141 140 139 139 140 141 142 144 145 145 146 145 144 143 142 141 138 137 136 134 133 132 131 127 122 118 118 116 112 105 98 94 89 78 60 44 35 35 33 31 34 32 29 26 29 34 42 46 44 48 44 41 42 43 50 57 62 69 85 94 86 84 90 95 98 101 101 76 74 89 94 94 97 103 114 123 126 130 134 137
138 143 147 145 144 143 141 140 138 138 139 140 142 143 143 144 144 144 144 143 141 138 138 137 135 135 137 136 132 127 126 124 118 112 103 95 92 85 72 52 39 29 27 24 17 18 18 21 21 22 27 31 41 45 45 48 46 43 45 52 52 59 66 80 93 85 83 94 105 109 107 104 75 71 86 94 97 100 106 116 128 130 130 132 136
138 145 149 148 146 145 143 141 139 138 138 139 139 141 143 144 144 144 145 144 142 140 140 139 140 141 142 143 141 139 134 126 118 111 103 98 94 84 66 45 35 25 17 15 9 8 10 21 25 23 27 30 41 47 41 43 47 47 48 54 54 60 68 82 92 78 83 100 110 112 111 103 74 78 87 91 103 106 112 118 124 131 130 130 134
141 147 149 148 147 146 145 142 140 140 139 139 139 140 142 144 146 147 147 147 145 144 144 146 148 149 151 152 151 147 138 129 124 116 105 100 97 84 58 42 36 24 13 12 10 8 11 21 27 25 29 35 42 47 45 40 42 48 50 54 53 61 68 74 84 76 70 88 104 109 105 94 67 81 97 92 105 112 117 120 123 128 130 131 133
143 147 148 149 148 147 146 145 143 143 141 140 142 142 142 144 148 149 150 150 148 148 148 152 154 155 156 154 154 149 141 135 132 122 105 99 100 82 50 42 38 25 15 13 10 9 14 19 23 25 29 35 39 44 50 46 45 50 55 58 49 55 66 70 80 73 65 85 110 109 94 86 67 72 102 105 114 121 120 123 128 130 132 133 132
146 148 151 150 149 148 148 149 148 147 145 144 144 144 144 146 148 150 151 150 150 151 153 155 157 157 155 153 154 151 150 145 139 131 110 108 107 72 40 32 33 24 14 13 10 10 15 19 20 24 27 31 35 40 47 49 51 55 59 59 51 54 60 63 72 68 69 86 107 113 97 82 76 74 95 114 129 138 132 132 134 134 135 134 131
150 152 153 152 150 149 150 151 152 151 150 150 149 148 148 148 149 150 149 150 152 155 157 157 158 157 154 155 156 158 159 153 148 138 117 120 101 49 30 19 18 13 7 7 7 9 16 19 20 25 26 28 33 35 40 45 50 55 59 58 50 53 61 63 68 63 68 82 96 126 109 82 81 91 93 121 141 149 151 145 139 139 140 139 134
152 156 154 155 153 151 153 153 154 154 155 155 154 154 152 151 150 150 151 153 155 156 156 156 158 156 156 158 157 161 161 154 147 135 127 133 95 41 20 8 5 0 357 356 357 3 12 17 23 27 27 29 33 34 35 40 46 51 55 58 53 49 56 60 70 66 61 75 84 103 97 82 79 94 107 130 153 156 161 160 150 145 146 149 144
150 156 157 158 156 155 156 155 156 156 157 158 158 158 156 155 154 154 156 156 157 156 156 157 156 154 154 152 152 152 148 147 141 136 154 175 195 357 359 358 353 348 349 347 348 356 5 15 25 27 27 29 32 36 37 40 43 46 49 58 63 55 49 41 51 57 49 57 59 64 68 72 86 94 114 133 161 162 161 164 165 156 153 159 156
146 154 158 157 158 159 158 157 159 159 158 160 161 161 160 161 161 161 161 159 159 156 156 156 152 149 145 142 144 143 143 148 152 167 177 214 244 301 331 338 337 340 343 341 345 355 2 13 24 26 27 25 27 35 37 40 41 43 46 61 70 51 46 49 47 50 45 45 37 48 60 57 103 117 127 136 160 171 165 163 172 170 162 166 168
149 154 154 156 159 160 161 160 160 161 160 161 163 164 166 168 166 166 163 161 160 156 156 152 148 143 139 142 145 147 151 159 174 186 195 245 265 294 309 323 329 337 340 338 345 355 4 12 19 20 19 19 22 29 31 35 34 38 44 59 72 48 40 51 38 45 53 55 47 47 58 52 84 124 149 148 156 169 173 168 171 175 171 173 173
150 153 154 157 160 161 162 161 161 160 160 162 165 166 170 171 168 168 165 163 159 157 155 149 147 143 145 151 154 158 164 180 196 207 225 257 292 310 316 327 331 338 339 337 343 350 4 6 7 7 9 13 15 20 26 30 23 28 37 30 64 56 29 47 31 3 36 56 57 45 43 47 71 96 153 166 163 163 173 174 172 174 178 181 178
150 152 155 156 158 161 162 161 161 160 161 163 166 168 171 171 168 168 167 165 163 162 158 153 154 152 156 158 160 168 184 204 205 232 249 270 307 316 322 326 326 334 334 334 341 348 357 357 359 2 8 13 11 17 20 24 17 17 23 358 41 71 41 43 19 353 5 22 44 34 24 24 54 99 155 176 176 170 169 177 180 179 180 184 184
151 152 153 158 160 160 162 164 163 162 163 165 169 170 169 170 169 170 171 170 168 165 162 163 164 161 164 167 176 186 208 224 216 245 261 276 286 307 318 322 327 330 330 333 346 354 356 357 1 2 10 16 13 17 10 11 7 4 11 350 352 38 46 43 1 354 355 326 355 28 20 8 15 63 170 181 191 189 181 175 183 186 184 184 186
151 153 155 161 164 161 163 166 167 166 165 167 171 170 169 171 171 173 175 173 172 172 172 174 172 171 177 185 199 206 221 237 241 268 281 291 299 321 325 333 336 331 332 338 352 0 4 6 5 2 2 8 9 13 8 0 355 349 355 349 342 348 356 7 352 335 319 297 297 344 352 353 358 346 224 187 190 198 204 196 187 191 189 190 189
154 156 160 163 167 166 166 168 170 169 167 169 171 173 173 173 176 179 178 178 178 180 182 182 181 182 187 200 215 220 233 240 248 286 300 304 316 326 324 335 336 331 341 354 359 352 357 1 1 360 352 1 359 354 356 345 350 356 354 1 1 355 353 348 338 332 320 292 303 322 320 327 326 316 287 214 201 197 209 214 204 198 197 199 196
157 160 165 166 168 170 170 171 172 170 170 171 172 178 177 174 181 183 183 186 185 188 191 190 193 193 195 206 220 224 232 236 247 306 310 310 313 305 308 323 332 336 344 355 358 346 357 357 351 349 346 356 347 336 339 342 7 15 14 16 10 9 10 347 334 334 328 333 350 338 333 325 308 284 278 250 226 207 207 216 216 211 202 204 204
161 163 169 168 169 172 173 174 175 173 172 175 175 180 180 178 183 187 189 189 190 193 194 195 199 198 203 212 218 219 231 248 254 287 290 288 282 277 296 314 319 334 343 348 351 345 349 338 329 333 339 348 334 330 337 3 23 17 20 21 1 359 4 348 338 333 325 334 342 327 326 325 312 283 265 256 247 227 213 211 216 222 214 207 206
164 165 169 169 169 174 177 177 178 176 174 177 177 180 184 183 185 190 189 187 192 194 193 204 208 203 210 216 216 213 234 264 257 259 256 232 233 253 284 299 293 311 338 345 346 329 322 319 317 326 333 340 334 332 344 22 33 12 10 358 335 1 360 342 334 325 314 313 316 317 321 323 316 295 267 253 251 245 230 219 213 218 219 216 212
167 167 170 170 171 178 183 181 181 179 177 180 178 183 188 185 189 192 187 186 190 191 196 208 216 216 216 212 212 212 226 260 256 248 249 240 226 235 260 277 284 309 322 325 320 301 307 317 318 323 331 341 334 333 353 36 41 4 355 342 344 18 4 335 327 324 313 291 299 322 326 327 324 311 286 259 251 255 253 246 230 222 221 220 219
170 170 172 174 176 182 186 184 185 183 181 184 181 185 188 184 193 195 190 192 189 190 199 207 215 220 220 219 215 209 210 229 251 251 246 252 248 251 257 265 279 298 294 287 284 286 300 307 306 312 317 326 318 335 7 39 43 353 345 1 357 7 352 338 315 315 317 277 289 327 324 328 332 326 310 279 256 254 256 262 252 241 233 226 223
172 172 174 176 179 183 186 186 189 188 186 189 185 186 186 185 195 197 195 200 193 190 199 205 209 214 226 234 222 213 213 212 235 247 234 242 256 262 258 266 276 266 268 271 276 287 295 298 306 309 308 317 323 1 16 18 23 338 341 6 345 352 350 349 13 353 346 251 277 317 330 343 345 339 322 305 292 269 258 259 259 259 251 241 231
176 175 177 177 179 182 186 189 191 193 190 189 189 189 191 191 195 198 199 203 199 194 197 200 208 222 231 232 226 228 229 222 234 243 240 246 252 258 253 258 267 263 267 273 281 288 292 297 302 306 314 331 357 28 8 352 350 305 329 355 337 355 339 354 44 18 9 318 303 323 344 350 345 348 342 332 330 309 281 266 260 262 259 250 237
181 179 179 179 181 183 186 190 193 198 193 188 194 194 197 200 198 200 200 203 207 201 199 198 206 226 232 231 238 240 235 235 244 248 250 255 255 258 255 252 261 268 274 278 284 286 290 295 294 301 316 340 20 18 343 338 320 303 318 327 340 357 325 22 27 325 291 25 333 342 352 349 346 352 350 347 349 339 319 296 282 272 263 252 237
183 182 183 182 183 184 186 190 193 201 196 187 195 198 198 204 202 202 202 205 214 209 205 205 206 219 232 241 245 242 240 244 249 252 254 260 264 265 262 264 271 274 276 282 287 289 291 292 295 305 312 347 17 331 332 351 320 323 340 322 354 350 350 49 18 343 54 344 277 314 334 347 349 348 345 349 1 359 349 336 309 281 274 259 242
184 184 186 186 185 186 187 191 196 203 199 188 192 198 199 204 201 201 206 209 217 216 211 215 215 218 232 249 252 244 242 242 246 254 257 262 265 268 270 274 277 274 275 279 283 287 291 289 294 302 301 315 307 308 352 348 312 328 349 358 12 338 3 43 4 6 37 252 257 299 273 265 288 303 313 326 356 0 344 335 314 265 257 253 245
188 188 187 186 186 189 189 191 198 204 203 194 191 196 199 201 199 197 207 213 215 217 214 214 219 225 235 250 257 254 246 241 245 252 259 263 265 270 274 277 277 276 278 278 279 283 287 289 291 294 294 290 276 351 354 317 308 324 327 353 360 296 327 9 314 352 10 293 294 316 321 336 289 269 286 293 316 351 337 325 312 250 230 234 237
191 192 190 188 186 190 192 191 198 204 207 203 195 198 202 202 202 198 205 215 213 213 215 213 214 225 240 245 253 259 252 243 243 248 259 264 269 275 276 280 280 274 273 275 279 282 284 287 288 281 281 286 295 348 321 286 297 291 290 336 304 275 290 299 265 245 48 33 41 15 346 360 358 355 359 267 284 330 340 336 329 253 223 215 225
192 193 193 193 189 190 194 192 198 203 207 210 204 203 206 208 208 203 204 213 216 210 213 222 218 216 226 234 246 258 261 253 249 255 263 266 273 277 277 284 284 276 275 278 281 285 285 283 276 256 241 264 287 304 284 279 287 275 309 346 279 282 278 271 267 215 88 34 44 66 344 351 2 5 20 20 358 8 8 14 32 351 248 213 217
193 194 196 199 195 192 195 194 197 203 207 213 210 206 208 213 214 211 212 217 221 216 210 222 226 218 220 229 240 253 265 266 264 269 271 271 275 276 278 283 283 278 279 279 281 286 285 275 259 242 265 281 295 309 298 294 307 292 306 282 264 287 280 280 267 139 98 55 79 64 44 31 32 15 14 25 18 9 12 37 44 38 39 195 206
196 195 196 202 199 195 196 197 195 199 208 212 211 208 206 213 218 217 220 223 226 225 221 223 228 226 223 230 242 252 261 263 266 274 275 274 275 273 277 281 277 274 278 280 280 279 266 242 218 250 284 294 297 330 356 305 297 262 272 258 258 296 330 30 103 117 82 79 140 62 66 51 61 51 8 18 38 12 12 27 19 38 59 68 66
198 198 198 201 202 197 198 201 197 196 206 210 207 207 206 211 217 217 220 226 229 229 229 230 228 226 225 233 248 256 261 264 266 272 273 274 272 264 267 272 270 275 284 283 265 249 222 212 259 281 302 310 283 343 358 299 289 275 323 326 255 282 8 56 94 106 64 44 280 351 151 48 62 70 20 16 40 25 8 20 8 22 46 44 42
197 199 199 200 203 200 199 203 202 197 202 207 205 206 209 211 215 219 217 218 230 234 232 233 230 229 234 240 248 258 265 267 267 268 268 270 266 257 258 259 261 274 266 216 200 212 217 261 294 301 329 20 64 123 262 258 255 317 328 308 244 247 254 28 56 95 152 202 193 103 122 289 302 35 71 43 28 358 337 3 27 21 31 31 18
197 198 199 200 202 202 200 202 205 202 199 204 209 210 210 212 216 221 215 209 225 239 236 234 229 226 235 243 249 259 265 267 265 255 252 267 264 248 248 244 238 232 209 193 199 241 258 286 319 338 171 160 52 183 248 260 249 301 316 282 231 232 256 251 191 189 198 175 172 156 117 316 304 339 79 41 317 339 335 352 25 19 29 40 9
197 198 199 201 204 205 203 202 206 208 203 202 210 214 213 213 212 212 213 210 214 229 236 231 224 219 228 241 249 255 259 262 256 241 244 262 253 237 240 245 235 218 211 190 145 241 292 1 96 162 181 190 246 258 303 325 282 283 309 263 244 244 287 57 154 190 186 162 228 224 296 317 294 316 344 325 314 28 336 341 2 11 24 58 60
198 199 199 201 205 208 207 203 204 208 208 205 208 214 215 211 207 206 211 213 205 211 226 227 223 225 231 240 247 253 255 252 241 237 254 252 236 240 243 246 242 219 197 114 136 206 278 16 209 202 178 201 236 188 159 335 281 287 271 227 273 306 56 52 306 222 203 230 252 248 324 358 313 326 350 0 20 72 17 339 351 360 4 22 81
199 201 200 200 205 208 207 205 204 207 209 209 209 213 215 211 210 211 213 214 208 208 219 224 224 229 233 233 241 249 241 233 231 233 243 239 235 236 225 230 238 220 177 164 190 209 149 192 243 261 179 232 224 170 160 182 265 306 296 237 309 3 342 328 352 281 231 233 214 243 333 318 319 341 15 13 1 66 19 341 348 349 342 353 14
200 201 201 202 205 207 207 206 207 208 208 210 212 214 216 214 213 215 215 215 215 215 221 226 225 226 230 227 235 246 229 216 221 225 225 224 231 235 229 223 223 234 205 185 180 159 91 195 214 230 209 226 213 172 160 185 253 317 334 232 269 279 276 277 342 334 294 253 224 268 303 284 315 14 58 16 311 313 348 343 350 354 330 329 349
200 201 201 203 205 207 208 208 208 210 209 210 214 215 216 215 215 216 216 217 219 220 222 225 225 223 225 220 221 236 230 208 205 219 209 197 220 243 238 208 180 189 235 233 130 127 185 202 196 217 221 229 211 185 198 199 202 303 199 215 241 260 302 285 289 296 297 255 254 277 287 284 10 117 317 344 295 303 344 343 339 342 325 297 325
201 202 202 202 205 207 208 207 208 209 209 209 213 216 216 216 216 216 216 215 215 218 220 222 226 220 211 205 204 219 229 207 193 215 210 198 226 242 224 202 179 188 200 196 80 164 209 223 223 235 232 244 240 205 210 201 182 151 254 244 216 210 276 223 245 306 265 242 268 282 270 280 347 308 317 353 235 265 330 331 328 333 326 260 309
202 204 204 203 205 206 207 208 208 208 208 209 211 214 216 216 216 216 215 214 211 212 215 217 225 218 202 200 204 212 227 219 197 214 220 212 230 230 215 207 185 193 194 147 166 211 234 246 243 243 221 216 251 242 197 191 195 183 337 279 194 187 232 213 225 305 272 249 287 293 274 286 343 8 298 286 237 290 318 319 329 336 308 273 302
204 204 204 204 205 206 207 208 209 208 207 208 210 213 216 217 216 216 216 215 213 214 215 213 217 217 202 200 209 213 226 232 209 218 224 211 223 221 205 202 183 192 199 180 187 204 233 256 242 224 218 206 223 235 189 183 208 203 178 186 126 155 216 224 240 263 271 309 298 277 274 302 339 320 280 275 290 310 312 315 339 342 274 284 305